星链-31872 (STARLINK-31872 )

导读

STARLINK-31872是美国太空探索技术公司(SpaceX)星链星座的成员卫星,于2024年6月1日发射入轨。星链项目是全球规模最大的低轨卫星互联网星座,旨在为全球提供全天候、高速率的宽带互联网服务。该卫星继承了星链星座的技术设计,承担增强全球网络覆盖、支撑星座运行服务的任务,也延续了星链快速批量部署低轨卫星星座的节奏。

基本信息
目录编号:
59922
目录名称:
STARLINK-31872
国际标识:
2024-106A
轨道中心:
EARTH
卫星名称:
星链-31872
卫星全名:
星链-31872 (STARLINK-31872 )
卫星状态:
在轨 (已飞行833 天)
发射日期:
2024-06-01 UTC
国别 :
美国 (US)
星等 :
--
该卫星已列入 空间交会检测服务 Space Conjunction Data Service (SCDS) ,当前飞行风险评估等级: 无高风险
轨道信息
数据来源 国际轨道数据
星历时间: 2026-09-11T16:28:08+0800
21小时前
查看轨道信息
半长轴: 6861.216km
偏心率: 0.0000941
轨道倾角: 43.000°
近地点辐角 253.971°
升交点赤经 4.332°
平近点角 106.104°
近地点: 482.433km
远地点: 483.725km
周期: 94.267分钟
每日圈数: 15.275701
详细信息
固有亮度:
5
最大亮度:
1.5
卫星平台:
Starlink v2.0 mini
覆盖范围:
全球
运营商:
太空探索技术公司
运营商所在国:
美国
制造商(研发单位):
太空探索技术公司
制造商所在国:
美国
使用方式:
暂无
卫星简介
星链(Starlink)计划是由太空探索技术公司(SpaceX)提出的一个巨型低轨卫星互联网星座项目,计划在2019年至2024年间在太空搭建由约1.2万颗卫星组成的“星链”网络,其中1584颗将部署在地球上空550千米处的近地轨道,并从2020年开始工作。该卫星仍在工作。
2D轨道图
3D轨道图
轨道高度分析图
轨道倾角分析图
轨道综合分析图
查看轨道综合分析图
交会数据列表
事件ID 空间交会对象 最接近时刻(TCA) 交会距离 交会风险概率(CRP) 交会风险指数(CRI) 操作
CDM_260914-091005-992206-801221
2026-09-14T
09:10:36+0000
0.625 km
远距离
6.839261E-5 中风险 0.72
CDM_260914-111605-992206-346221
2026-09-14T
11:16:36+0000
1.511 km
极远距离
3.662211E-6 低风险 0.46
CDM_260913-225805-233205-992221
2026-09-13T
22:58:17+0000
2.674 km
极远距离
1.116677E-6 低风险 0.36
CDM_260914-005004-394605-992223
2026-09-14T
00:50:41+0000
2.531 km
极远距离
1.110934E-6 低风险 0.36
CDM_260914-104405-992206-801221
2026-09-14T
10:44:45+0000
2.455 km
极远距离
1.108791E-6 低风险 0.36
与全量物体交会距离演化趋势
与全量物体交会风险概率演化趋势